{"data":{"norad_id":67291,"epoch":"2026-05-24T22:26:43.384704Z","epoch_age_seconds":77662,"freshness":"FRESH","line1":"1 67291U 25313AV  26144.93522436  .00013174  00000+0  52045-3 0  9994","line2":"2 67291  97.3938 220.3986 0010367  81.7267 278.5146 15.25582525 22449","mean_motion":15.25582525,"eccentricity":0.0010367,"inclination_deg":97.3938,"raan_deg":220.3986,"arg_perigee_deg":81.7267,"mean_anomaly_deg":278.5146,"bstar":0.00052045,"rev_number":2244,"period_min":94.390174009105,"perigee_km":481.91758081091,"apogee_km":496.15597892609,"semimajor_km":6867.1737798685,"source":"CELESTRAK","updated_at":"2026-05-25T13:38:06.856296Z"}}